Location: Kernascl�den
(48.0062°N, 3.3198°W)
Time: 23:15:44
(UTC+00:00)

Meteor 2-10 Rocket - Visible Passes

Search period start: 05 May 2021 00:00
Search period end: 15 May 2021 00:00
Orbit: 735 x 884 km, 81.2° (Epoch: 05 May)

Date Brightness Start Highest point End Pass type
(mag) Time Alt. Az. Time Alt. Az. Time Alt. Az.
05 May 6.5 03:02:48 10° NNE 03:07:02 20° ENE 03:11:10 10° ESE visible
06 May 6.7 02:39:00 10° NNE 02:42:22 15° ENE 02:45:42 10° E visible
07 May 6.9 02:15:39 10° NNE 02:17:40 12° NE 02:19:41 10° ENE visible
07 May 4.4 03:55:16 10° N 04:01:04 62° ENE 04:06:40 10° SSE visible
08 May 4.9 03:31:01 10° N 03:36:37 46° ENE 03:42:03 10° SE visible
09 May 5.5 03:06:50 10° N 03:12:08 35° ENE 03:17:17 10° SE visible
10 May 5.9 02:42:44 10° N 02:47:36 27° ENE 02:52:21 10° ESE visible
11 May 6.2 02:18:44 10° NNE 02:23:01 21° ENE 02:27:12 10° ESE visible
11 May 3.8 03:59:57 10° NNW 04:05:43 71° W 04:11:17 10° S visible
12 May 6.4 01:54:54 10° NNE 01:58:22 16° ENE 02:01:48 10° E visible
12 May 3.8 03:35:35 10° N 03:41:23 86° ENE 03:46:58 10° SSE visible
13 May 6.6 01:31:27 10° NNE 01:33:41 12° NE 01:35:53 10° ENE visible
13 May 4.2 03:11:15 10° N 03:17:01 65° ENE 03:22:32 10° SSE visible
14 May 4.7 02:47:00 10° N 02:52:35 49° ENE 02:57:56 10° SSE visible
